Theta_e
346 343 339 339 343 348 347 351 353 354 354 353 352 351 351 348 352 352 353 354 356 358 354 350 350 354 355 354 354 355 355 354 355
345 348 344 339 344 347 347 352 354 357 356 354 355 354 353 350 350 355 354 353 354 355 357 355 353 353 356 355 354 354 355 354 354
356 353 350 346 345 347 348 349 350 350 352 356 357 357 357 356 351 351 355 357 359 361 359 357 355 352 343 339 338 350 353 355 354
356 355 351 345 347 347 349 350 343 344 347 347 348 360 359 359 358 357 354 353 353 354 356 356 354 351 348 335 337 344 354 355 356
353 353 352 348 348 348 342 343 344 345 339 333 339 353 362 360 360 360 361 361 361 361 360 359 359 354 350 339 341 345 350 352 354
350 355 346 344 343 342 339 340 339 339 337 334 333 346 364 363 363 363 364 364 364 363 363 360 360 357 351 343 345 343 344 345 350
348 352 352 344 340 339 338 339 341 342 340 337 341 348 362 362 363 364 364 364 364 363 363 361 359 355 348 339 338 335 346 342 348
350 360 362 361 358 351 345 347 349 347 348 349 355 359 359 361 361 361 363 364 364 362 361 360 358 348 348 341 338 338 343 337 340
347 352 358 356 355 354 354 357 359 362 359 359 359 360 360 362 360 360 361 361 361 358 354 349 351 353 353 346 345 338 341 347 349
345 345 346 349 352 351 354 355 360 358 356 356 359 361 363 365 366 364 360 358 357 354 354 349 348 358 356 355 353 351 348 342 337
345 346 348 349 346 345 350 355 358 356 358 358 358 358 361 363 361 363 365 358 359 359 359 360 358 355 349 345 341 336 333 332 333
343 345 348 348 345 343 344 350 354 354 355 353 356 357 360 361 361 362 364 362 358 357 350 342 341 340 338 336 330 331 331 332 334
337 338 344 343 341 341 340 340 342 343 345 343 342 342 343 345 347 349 353 357 358 359 357 355 350 351 345 333 327 330 330 327 326
337 336 339 339 336 336 335 335 335 335 337 341 339 337 335 334 333 333 335 336 338 345 351 356 356 355 354 341 327 326 333 330 329
334 333 334 335 334 333 334 334 334 334 335 337 337 336 335 335 335 335 336 336 335 335 335 335 339 353 356 357 355 351 349 348 348
333 333 333 333 333 333 334 334 334 333 334 333 333 332 332 332 334 337 337 337 336 336 335 338 339 342 349 352 353 351 349 346 344
330 332 333 334 334 334 334 334 334 334 333 332 332 332 333 333 331 330 330 331 332 334 336 337 338 338 339 342 343 348 350 349 348
332 333 333 333 333 332 332 332 332 332 332 333 333 332 331 330 329 328 328 328 330 330 331 333 335 336 337 337 339 340 339 345 346
331 331 332 332 333 334 333 334 334 333 331 331 331 331 330 330 330 329 329 330 329 328 329 330 328 328 328 331 333 334 333 332 331
331 334 335 335 332 329 327 328 330 331 331 331 329 327 328 330 331 330 330 329 329 329 330 329 328 328 329 330 331 330 333 331 330
Wind_Speed
10 12 11 16 22 32 30 30 31 31 33 35 39 38 38 38 35 32 31 28 26 21 29 26 25 27 30 27 25 27 24 24 23
7 12 15 20 28 7 13 12 4 11 26 39 38 40 40 40 40 37 34 32 31 29 25 25 21 26 24 26 29 30 28 26 24
7 7 10 19 12 22 28 23 14 12 24 14 26 39 38 38 38 40 36 32 29 26 25 27 24 6 13 30 35 33 29 28 24
8 3 6 11 15 24 24 23 11 10 25 19 41 24 31 33 33 34 33 35 35 36 33 26 18 10 5 43 32 29 25 24 23
8 7 6 10 14 16 15 15 24 31 23 39 46 24 29 32 33 32 30 30 30 26 21 23 27 18 13 13 20 21 15 21 24
9 10 6 6 7 7 17 21 23 31 42 28 27 26 33 33 33 32 30 28 26 22 18 17 16 19 16 16 17 14 13 18 25
9 8 12 6 6 9 20 21 27 31 35 37 33 30 32 31 29 29 28 27 23 21 20 16 16 16 16 17 22 21 20 23 25
9 14 15 13 12 13 20 22 31 34 35 30 24 20 24 23 19 14 18 21 19 15 16 16 17 16 18 20 20 22 24 19 19
9 8 8 8 8 15 22 26 21 19 20 10 8 7 5 2 9 15 16 18 16 14 13 14 19 19 20 23 26 27 25 28 29
9 8 7 7 8 7 8 10 15 15 12 6 6 4 3 2 1 6 11 12 13 13 14 16 19 21 23 25 23 22 22 20 23
9 8 7 7 13 18 15 6 6 8 10 10 6 3 2 1 5 4 8 9 9 10 13 16 17 18 18 20 19 16 15 15 17
7 7 9 16 20 20 22 22 16 15 11 10 12 15 9 2 2 2 5 7 6 8 11 14 16 17 19 22 19 17 15 13 11
8 15 17 18 18 18 18 15 15 16 15 14 14 11 11 11 11 10 9 8 9 13 15 17 18 20 21 22 22 18 21 22 21
14 18 20 19 19 18 15 12 10 11 9 9 8 9 11 13 15 16 15 14 14 14 15 17 23 24 22 23 27 26 25 29 32
10 12 14 15 13 11 10 10 9 8 9 8 10 13 15 16 17 18 17 18 19 20 20 21 22 23 29 30 31 32 32 31 31
7 13 13 12 12 10 9 8 8 9 9 12 15 18 21 23 22 21 19 19 21 24 24 23 24 21 21 24 27 33 34 33 32
7 13 13 13 10 7 3 4 7 10 13 17 18 18 19 19 20 22 24 25 26 25 25 24 24 25 24 25 28 29 31 31 31
12 12 8 4 3 4 7 9 12 14 16 15 17 18 22 24 25 25 26 25 24 27 28 25 24 24 27 27 25 27 28 25 27
13 11 9 6 5 5 7 9 11 13 15 18 21 24 26 27 28 28 28 27 30 28 27 28 30 34 35 35 31 35 37 35 35
5 5 6 5 3 4 8 10 12 12 11 12 16 20 22 25 27 29 29 29 27 24 28 30 32 32 32 34 35 33 31 30 30
Wind_Direction
164 182 212 234 224 211 203 192 192 191 201 202 208 214 218 218 222 225 229 233 236 239 231 238 244 242 245 246 249 251 245 248 247
144 198 216 224 222 186 116 108 95 259 217 207 210 214 219 222 222 224 227 233 239 246 249 252 256 246 257 264 255 246 245 246 247
143 191 228 229 125 136 131 123 100 354 354 290 242 215 220 222 228 229 229 233 239 245 249 255 265 279 30 351 333 272 239 246 253
118 142 89 127 137 145 155 164 179 318 319 270 281 251 223 226 232 236 236 240 244 247 251 256 255 241 10 323 312 313 261 256 261
118 134 136 139 150 173 120 114 147 177 223 208 241 264 234 230 236 239 236 238 242 249 257 258 255 255 284 285 279 299 287 277 271
119 130 111 112 107 146 132 151 155 200 214 224 244 246 231 235 235 236 237 239 244 247 250 257 253 251 249 244 210 224 250 286 261
107 128 141 140 131 163 169 194 184 210 229 238 252 243 238 235 235 238 241 240 240 244 240 248 244 244 232 210 234 260 238 248 252
123 124 140 148 155 175 193 202 213 222 231 239 246 232 223 223 227 234 231 229 225 232 237 239 249 247 245 246 259 255 255 261 264
113 138 137 147 153 153 160 161 162 178 187 161 143 139 143 174 228 233 225 226 229 234 245 252 236 245 252 254 259 256 264 275 278
141 136 138 147 159 143 139 133 147 145 148 145 138 113 114 174 195 241 239 235 249 256 259 255 246 249 259 261 261 263 265 268 275
134 129 118 94 95 83 69 124 159 138 132 120 111 98 174 79 339 296 250 236 239 254 251 248 254 263 263 264 262 259 261 268 271
115 112 116 118 109 95 81 70 89 96 97 84 78 69 61 35 308 321 264 285 285 265 270 267 263 263 264 259 265 254 244 243 281
98 95 115 110 102 95 83 77 69 63 62 56 52 39 26 13 6 15 9 332 302 284 272 271 271 271 267 258 260 255 244 251 278
115 108 103 107 95 89 88 77 61 60 46 46 28 8 353 344 342 341 338 333 326 326 320 304 278 267 267 264 257 262 263 258 266
132 127 119 116 105 90 71 62 57 51 32 8 351 343 336 333 331 328 324 324 320 317 314 311 301 296 277 268 267 268 270 268 268
142 131 118 116 109 97 75 51 20 7 355 343 334 327 322 319 319 319 319 317 315 311 306 299 295 286 279 276 273 277 279 277 277
101 110 105 107 100 87 55 347 324 317 316 314 312 308 303 301 302 303 303 305 306 305 303 295 287 282 275 275 274 279 283 282 283
130 132 138 150 189 231 271 284 293 299 297 287 278 279 286 290 292 293 295 295 294 296 294 292 287 281 281 278 277 276 281 287 276
168 184 198 204 218 245 280 298 297 296 294 290 285 280 283 280 279 279 280 279 285 287 285 287 289 288 287 287 285 282 279 279 277
163 128 118 94 53 335 317 313 310 313 316 318 321 316 312 305 295 284 275 275 273 273 280 277 278 284 281 280 287 285 288 285 284